Date String (YYYY-MM-DD hh:mm:ss) UTC,Instrument flags,Ambient pressure (hPa),Sample flow (lpm),Bypass flow (lpm),Sample temperature (°C),Ambient temperature (°C),ASC tube jacket temperature (°C),LED temperature (°C),Box temperature (°C),Sample RH (%),Span deviation,Mass concentration (μg/m³),Mass concentration (μg/m³),Mass concentration (μg/m³)
DateTimeUTC,F1_M11,P_M11,Q1_M11,Q2_M11,T1_M11,T2_M11,T3_M11,T4_M11,T5_M11,U1_M11,ZSPAN_M11,X0_M11,X2_M11,X1_M11
2021-11-11 01:00:00,,0825.4,5.01,0.00,25.0,23.9,00.0,34.2,26.5,08.3,0000.0,0008.28,0003.65,0003.18
2021-11-11 01:01:00,,0825.4,5.00,0.00,25.0,23.8,00.0,34.2,26.6,08.4,0000.0,0008.35,0003.66,0003.20
2021-11-11 01:02:00,,0825.4,5.00,0.00,25.0,23.8,00.0,34.1,26.6,08.4,0000.0,0008.40,0003.66,0003.22
2021-11-11 01:03:00,,0825.4,5.00,0.00,25.0,23.8,00.0,34.1,26.6,08.4,0000.0,0008.44,0003.67,0003.22
2021-11-11 01:04:00,,0825.4,5.01,0.00,25.0,23.9,00.0,34.1,26.6,08.5,0000.0,0008.48,0003.70,0003.23
2021-11-11 01:05:00,,0825.4,5.01,0.00,25.0,23.8,00.0,34.1,26.6,08.5,0000.0,0008.25,0003.70,0003.24
2021-11-11 01:06:00,,0825.4,5.00,0.00,24.9,23.7,00.0,34.1,26.5,08.5,0000.0,0008.13,0003.69,0003.24
2021-11-11 01:07:00,,0825.3,5.00,0.00,24.9,23.7,00.0,34.1,26.6,08.5,0000.0,0008.62,0003.70,0003.25
2021-11-11 01:08:00,,0825.4,4.99,0.00,24.9,23.8,00.0,34.1,26.6,08.5,0000.0,0008.70,0003.73,0003.26
2021-11-11 01:09:00,,0825.4,5.00,0.00,24.9,23.8,00.0,34.1,26.6,08.5,0000.0,0008.25,0003.76,0003.28
2021-11-11 01:10:00,,0825.4,4.99,0.00,24.9,23.8,00.0,34.1,26.6,08.5,0000.0,0008.24,0003.84,0003.29
2021-11-11 01:11:00,,0825.4,5.00,0.00,24.9,23.7,00.0,34.1,26.5,08.6,0000.0,0008.30,0003.88,0003.30
2021-11-11 01:12:00,,0825.3,4.99,0.00,24.9,23.7,00.0,34.0,26.5,08.6,0000.0,0008.24,0003.89,0003.30
2021-11-11 01:13:00,,0825.3,4.99,0.00,24.9,23.7,00.0,34.0,26.5,08.6,0000.0,0008.28,0003.93,0003.30
2021-11-11 01:14:00,,0825.4,5.00,0.00,24.9,23.7,00.0,34.0,26.5,08.6,0000.0,0008.41,0003.95,0003.30
2021-11-11 01:15:00,,0825.3,5.00,0.00,24.9,23.7,00.0,34.0,26.5,08.7,0000.0,0008.39,0003.93,0003.30
2021-11-11 01:16:00,,0825.3,5.00,0.00,24.9,23.7,00.0,34.0,26.5,08.7,0000.0,0008.42,0003.92,0003.30
2021-11-11 01:17:00,,0825.3,5.01,0.00,24.8,23.7,00.0,34.0,26.5,08.8,0000.0,0008.41,0003.92,0003.31
2021-11-11 01:18:00,,0825.3,5.00,0.00,24.8,23.6,00.0,34.0,26.4,08.8,0000.0,0007.83,0003.89,0003.30
2021-11-11 01:19:00,,0825.3,4.99,0.00,24.8,23.6,00.0,34.0,26.4,08.8,0000.0,0007.51,0003.91,0003.31
2021-11-11 01:20:00,,0825.4,5.00,0.00,24.8,23.6,00.0,34.0,26.4,08.9,0000.0,0007.46,0003.89,0003.30
2021-11-11 01:21:00,,0825.4,5.00,0.00,24.8,23.5,00.0,34.0,26.4,08.9,0000.0,0007.20,0003.85,0003.30
2021-11-11 01:22:00,,0825.4,4.99,0.00,24.8,23.5,00.0,33.9,26.4,08.8,0000.0,0007.21,0003.85,0003.30
2021-11-11 01:23:00,,0825.4,5.00,0.00,24.8,23.5,00.0,33.9,26.3,08.8,0000.0,0007.20,0003.85,0003.30
2021-11-11 01:24:00,,0825.4,5.00,0.00,24.8,23.5,00.0,33.9,26.4,08.8,0000.0,0007.03,0003.82,0003.30
2021-11-11 01:25:00,,0825.3,5.00,0.00,24.8,23.5,00.0,33.9,26.4,08.8,0000.0,0006.77,0003.80,0003.30
2021-11-11 01:26:00,,0825.3,5.00,0.00,24.8,23.6,00.0,33.9,26.4,08.8,0000.0,0006.59,0003.79,0003.30
2021-11-11 01:27:00,,0825.3,5.00,0.00,24.8,23.6,00.0,33.9,26.4,08.8,0000.0,0006.58,0003.76,0003.30
2021-11-11 01:28:00,,0825.4,4.99,0.00,24.8,23.6,00.0,33.9,26.4,08.9,0000.0,0006.88,0003.77,0003.30
2021-11-11 01:29:00,,0825.3,5.00,0.00,24.8,23.6,00.0,33.9,26.4,08.8,0000.0,0006.94,0003.77,0003.30
2021-11-11 01:30:00,,0825.3,4.99,0.00,24.8,23.7,00.0,33.9,26.4,08.7,0000.0,0006.79,0003.75,0003.30
2021-11-11 01:31:00,,0825.2,5.01,0.00,24.8,23.7,00.0,33.9,26.4,08.8,0000.0,0006.68,0003.76,0003.31
2021-11-11 01:32:00,,0825.2,5.00,0.00,24.8,23.6,00.0,33.9,26.3,08.8,0000.0,0006.67,0003.76,0003.32
2021-11-11 01:33:00,,0825.2,5.00,0.00,24.7,23.6,00.0,33.9,26.4,08.9,0000.0,0006.76,0003.78,0003.34
2021-11-11 01:34:00,,0825.2,5.00,0.00,24.7,23.6,00.0,33.9,26.3,08.9,0000.0,0006.85,0003.79,0003.34
2021-11-11 01:35:00,,0825.2,4.98,0.00,24.7,23.6,00.0,33.9,26.4,09.0,0000.0,0007.01,0003.82,0003.34
2021-11-11 01:36:00,,0825.2,5.00,0.00,24.7,23.6,00.0,33.9,26.4,09.0,0000.0,0007.05,0003.83,0003.35
2021-11-11 01:37:00,,0825.2,5.00,0.00,24.7,23.6,00.0,33.9,26.3,09.0,0000.0,0007.14,0003.85,0003.36
2021-11-11 01:38:00,,0825.3,5.00,0.00,24.7,23.6,00.0,33.9,26.3,09.0,0000.0,0007.07,0003.88,0003.36
2021-11-11 01:39:00,,0825.2,4.99,0.00,24.7,23.5,00.0,33.9,26.3,09.1,0000.0,0006.75,0003.88,0003.36
2021-11-11 01:40:00,,0824.9,5.00,0.00,24.7,23.6,00.0,33.9,26.4,09.1,0000.0,0007.33,0003.89,0003.36
2021-11-11 01:41:00,,0824.9,5.00,0.00,24.7,23.6,00.0,33.9,26.5,09.1,0000.0,0007.94,0003.88,0003.36
2021-11-11 01:42:00,,0824.8,5.00,0.00,24.7,23.6,00.0,33.9,26.5,09.1,0000.0,0008.04,0003.87,0003.35
2021-11-11 01:43:00,,0824.9,5.01,0.00,24.7,23.7,00.0,33.9,26.5,09.2,0000.0,0008.04,0003.86,0003.34
2021-11-11 01:44:00,,0825.0,4.99,0.00,24.7,23.7,00.0,33.8,26.4,09.2,0000.0,0007.99,0003.84,0003.32
2021-11-11 01:45:00,,0824.9,5.00,0.00,24.7,23.5,00.0,33.8,26.2,09.3,0000.0,0007.90,0003.82,0003.31
2021-11-11 01:46:00,,0824.9,4.99,0.00,24.6,23.5,00.0,33.8,26.2,09.3,0000.0,0007.79,0003.78,0003.30
2021-11-11 01:47:00,,0825.0,5.01,0.00,24.6,23.4,00.0,33.8,26.2,09.3,0000.0,0007.76,0003.76,0003.29
2021-11-11 01:48:00,,0825.0,4.99,0.00,24.6,23.4,00.0,33.8,26.2,09.3,0000.0,0007.74,0003.74,0003.28
2021-11-11 01:49:00,,0824.9,5.01,0.00,24.6,23.4,00.0,33.8,26.1,09.3,0000.0,0007.69,0003.72,0003.27
2021-11-11 01:50:00,,0824.9,5.00,0.00,24.6,23.4,00.0,33.8,26.1,09.4,0000.0,0007.61,0003.69,0003.26
2021-11-11 01:51:00,,0824.9,5.01,0.00,24.6,23.4,00.0,33.8,26.2,09.4,0000.0,0007.08,0003.68,0003.24
2021-11-11 01:52:00,,0824.9,5.00,0.00,24.6,23.4,00.0,33.8,26.1,09.4,0000.0,0006.20,0003.69,0003.22
2021-11-11 01:53:00,,0825.0,5.00,0.00,24.5,23.4,00.0,33.7,26.1,09.5,0000.0,0006.05,0003.69,0003.23
2021-11-11 01:54:00,,0825.1,5.00,0.00,24.5,23.4,00.0,33.7,26.1,09.5,0000.0,0005.93,0003.68,0003.22
2021-11-11 01:55:00,,0825.2,5.00,0.00,24.5,23.3,00.0,33.7,26.1,09.5,0000.0,0005.79,0003.65,0003.22
2021-11-11 01:56:00,,0825.2,4.99,0.00,24.5,23.3,00.0,33.7,26.2,09.5,0000.0,0005.75,0003.64,0003.22
2021-11-11 01:57:00,,0825.2,5.00,0.00,24.5,23.3,00.0,33.7,26.2,09.6,0000.0,0005.73,0003.63,0003.21
2021-11-11 01:58:00,,0825.2,5.01,0.00,24.5,23.3,00.0,33.7,26.1,09.6,0000.0,0005.76,0003.63,0003.21
2021-11-11 01:59:00,,0825.2,4.99,0.00,24.5,23.3,00.0,33.7,26.2,09.6,0000.0,0005.82,0003.62,0003.21
